EDT,Max TemperatureF,Mean TemperatureF,Min TemperatureF,Max Dew PointF,MeanDew PointF,Min DewpointF,Max Humidity, Mean Humidity, Min Humidity, Max Sea Level PressureIn, Mean Sea Level PressureIn, Min Sea Level PressureIn, Max VisibilityMiles, Mean VisibilityMiles, Min VisibilityMiles, Max Wind SpeedMPH, Mean Wind SpeedMPH, Max Gust SpeedMPH,PrecipitationIn, CloudCover, Events, WindDirDegrees
2013-3-1,26,21,16,16,13,11,81,71,61,30.24,30.20,30.12,10,10,4,17,13,25,0.00,5,Snow,20
2013-3-2,24,19,14,17,13,10,84,76,65,30.21,30.18,30.11,10,10,7,16,10,22,0.00,6,Snow,10
2013-3-3,24,15,6,17,13,4,90,78,64,30.11,30.09,30.07,10,10,10,12,7,20,0.00,5,Snow,357
2013-3-4,26,15,5,16,12,2,92,79,52,30.19,30.15,30.10,10,10,10,10,4,,0.00,2,,349
2013-3-5,29,18,6,21,15,3,89,78,66,30.17,30.10,30.03,10,10,10,18,5,23,0.00,2,,72
2013-3-6,32,30,27,31,26,21,96,84,74,30.29,30.20,30.09,10,9,3,17,8,22,0.00,7,Snow,15
2013-3-7,28,26,25,23,19,16,84,74,64,30.45,30.38,30.29,10,10,7,15,9,22,0.00,8,Snow,339
2013-3-8,36,26,17,28,23,17,99,87,60,30.52,30.46,30.39,10,10,7,13,2,,0.00,3,,298
2013-3-9,42,30,19,35,25,19,99,76,48,30.38,30.19,29.95,10,9,4,14,6,18,0.00,4,Rain,139
2013-3-10,39,36,34,39,36,34,100,97,86,29.95,29.87,29.79,10,5,0,13,8,,0.00,8,Fog-Rain,107
2013-3-11,42,37,32,42,37,32,100,100,99,29.82,29.57,29.46,10,4,0,16,9,23,0.00,8,Fog-Rain-Snow,172
2013-3-12,32,28,23,32,25,19,100,91,80,29.87,29.74,29.52,10,6,1,18,14,25,0.00,8,Snow,282
2013-3-13,28,24,20,21,17,14,93,74,54,30.22,30.04,29.86,10,8,1,21,14,30,0.00,6,Snow,317
2013-3-14,32,28,25,24,21,18,81,72,62,30.25,30.16,29.97,10,10,10,15,10,22,0.00,3,,282
2013-3-15,33,28,22,32,23,12,99,76,59,29.99,29.93,29.87,10,9,1,18,13,26,0.00,7,Snow,321
2013-3-16,22,20,17,20,14,10,93,77,62,30.03,29.98,29.92,10,8,0,13,7,20,0.00,5,Snow,47
2013-3-17,24,20,15,23,10,5,97,67,52,30.35,30.24,30.04,10,8,1,23,12,34,0.00,3,Snow,20
2013-3-18,38,26,15,30,19,7,100,77,43,30.21,29.85,29.50,10,8,0,20,9,28,0.00,3,Snow,112
2013-3-19,31,27,23,31,24,16,100,90,68,29.84,29.61,29.46,10,3,0,24,13,31,0.00,8,Snow,246
2013-3-20,25,23,21,23,17,12,96,76,67,29.89,29.85,29.83,10,7,0,25,19,31,0.00,8,Snow,282
2013-3-21,28,26,25,26,21,17,94,79,67,29.96,29.89,29.82,10,8,2,23,15,31,0.00,8,Snow,329
2013-3-22,31,28,25,26,24,19,90,82,73,30.07,29.98,29.94,10,10,7,15,11,21,0.00,8,,319
2013-3-23,34,30,27,30,26,22,93,84,72,30.14,30.11,30.07,10,10,5,12,6,17,0.00,7,,314
2013-3-24,33,30,28,27,25,22,88,78,63,30.12,30.00,29.87,10,10,10,15,8,16,0.00,4,,28
2013-3-25,34,32,30,30,27,24,89,81,73,30.02,29.91,29.86,10,10,4,17,10,23,0.00,8,Snow,10
2013-3-26,38,35,32,32,30,27,96,86,64,30.16,30.09,30.02,10,10,4,15,7,21,0.00,5,Snow,325
2013-3-27,39,34,30,32,30,29,95,86,71,30.24,30.19,30.14,10,10,10,15,9,22,0.00,3,,293
2013-3-28,40,35,30,32,29,26,92,79,62,30.29,30.27,30.24,10,10,10,13,7,,0.00,1,,276
2013-3-29,43,32,22,32,25,21,100,75,43,30.31,30.28,30.23,10,10,5,13,4,,0.00,0,,256
2013-3-30,47,35,23,40,25,20,95,66,34,30.23,30.06,29.81,10,10,5,12,4,24,0.00,3,Rain,174
2013-3-31,42,35,28,41,34,21,100,93,70,29.80,29.67,29.60,10,4,0,26,11,37,0.00,8,Fog-Rain,246